310  
ASUS44 KBMX 230010  
RWRAL  
 
ALABAMA REGIONAL WEATHER ROUNDUP  
NATIONAL WEATHER SERVICE BIRMINGHAM AL  
700 PM CDT FRI JUN 22 2018  
 
NOTE: "FAIR" INDICATES FEW OR NO CLOUDS BELOW 12,000 FEET  
WITH NO SIGNIFICANT WEATHER AND/OR S TO VISIBILITY
.  
 
THE REMARK "TC" DENOTES TEMPERATURE IN DEGREES CELSIUS.  
 
ALZ001>011-014-016>018-020-230100-  
NORTH ALABAMA  
 
CITY SKY/WX TMP DP RH WIND PRES REMARKS
 
MUSCLE SHOALS HVY RAIN 74 72 93 W8G18 29.78R FOG  
6HR MIN TEMP: 71; 6HR MAX TEMP: 86; 6HR PCP: 0.47;  
 
HUNTSVILLE LGT RAIN 73 70 90 SW5 29.78R  
6HR MAX TEMP: 85; 6HR PCP: 1.03;  
 
DECATUR PTSUNNY 73 69 87 S6 29.78R  
6HR MIN TEMP: 71; 6HR MAX TEMP: 85; 6HR PCP: 0.92;  
 
HALEYVILLE PTSUNNY 79 77 94 SW14 29.79F  
6HR MIN TEMP: 78; 6HR MAX TEMP: 84; 6HR PCP: 0.02;  
 
GADSDEN PTSUNNY 79 77 94 MISG 29.80F  
6HR MIN TEMP: 74; 6HR MAX TEMP: 86;  
 

 
 
ALZ012-013-022-023-030>036-040>044-230100-  
WEST CENTRAL ALABAMA  
 
CITY SKY/WX TMP DP RH WIND PRES REMARKS
 
TUSCALOOSA FAIR 81 73 76 S6 29.80S  
6HR MIN TEMP: 81; 6HR MAX TEMP: 88; 6HR PCP: TRACE;  
 
DEMOPOLIS FAIR 84 74 73 S6 29.81F HX 91  
6HR MIN TEMP: 83; 6HR MAX TEMP: 87;  
 

 
 
ALZ015-024>026-033>036-041>044-230100-  
CENTRAL ALABAMA  
 
CITY SKY/WX TMP DP RH WIND PRES REMARKS
 
BIRMINGHAM CLOUDY 81 71 71 SW13G22 29.83R  
6HR MIN TEMP: 73; 6HR MAX TEMP: 84; 6HR PCP: 0.31;  
 
MONTGOMERY FAIR 85 76 74 SW7 29.83S HX 94  
6HR MIN TEMP: 85; 6HR MAX TEMP: 92;  
 
SHELBY CO ARPT FAIR 81 72 74 SW6 29.82S  
6HR MIN TEMP: 81; 6HR MAX TEMP: 86; 6HR PCP: TRACE;  
 
MAXWELL AFB FAIR 81 73 78 E3 29.82F  
6HR MIN TEMP: 80; 6HR MAX TEMP: 89;  
 
GREENVILLE FAIR 87 71 58 SW7 29.84S HX 93  
6HR MIN TEMP: 86; 6HR MAX TEMP: 90;  
 
SELMA FAIR 84 75 74 SW7 29.82S HX 92  
PRATTVILLE FAIR 78 75 91 CALM 29.82F  
6HR MIN TEMP: 76; 6HR MAX TEMP: 88;  
 
BESSEMER FAIR 78 74 87 SW7 29.83S  
6HR MIN TEMP: 78; 6HR MAX TEMP: 84; 6HR PCP: 0.02;  
 
TALLADEGA FAIR 79 73 83 S6 29.82R  
PELL CITY PTCLDY 79 73 83 SW8 29.82R  
MARION FAIR 83 76 78 MISG 29.81F HX 91  
6HR MIN TEMP: 79; 6HR MAX TEMP: 87;  
 
SYLACAUGA PTSUNNY 79 74 83 SW6 29.84R  
6HR MIN TEMP: 78; 6HR MAX TEMP: 88;  
 

 
 
ALZ019-021-028-029-037-038-045>048-230100-  
EAST CENTRAL ALABAMA  
 
CITY SKY/WX TMP DP RH WIND PRES REMARKS
 
ANNISTON FAIR 77 72 84 SW6 29.82R  
6HR MIN TEMP: 73; 6HR MAX TEMP: 87; 6HR PCP: 0.71;  
 
ALEXANDER CITY FAIR 74 74 100 CALM 29.85F  
6HR MIN TEMP: 73; 6HR MAX TEMP: 86; 6HR PCP: 0.21;  
 
AUBURN RAIN 73 71 93 S6 29.88S  
6HR MIN TEMP: 73; 6HR MAX TEMP: 87; 6HR PCP: 0.33;  
 

 
 
ALZ051>064-230100-  
SOUTHWEST ALABAMA  
 
CITY SKY/WX TMP DP RH WIND PRES REMARKS
 
MOBILE FAIR 86 75 69 SW13 29.87S HX 95  
6HR MIN TEMP: 86; 6HR MAX TEMP: 92;  
 
BROOKLEY FIELD FAIR 87 77 72 VRB6 29.87F HX 99  
6HR MIN TEMP: 87; 6HR MAX TEMP: 93;  
 
EVERGREEN FAIR 87 73 62 SW6 29.85S HX 94  
6HR MIN TEMP: 87; 6HR MAX TEMP: 92;  
 

 
 
ALZ049-050-065>069-230100-  
SOUTHEAST ALABAMA  
 
CITY SKY/WX TMP DP RH WIND PRES REMARKS
 
DOTHAN FAIR 87 71 58 SW10 29.89R HX 93  
6HR MIN TEMP: 87; 6HR MAX TEMP: 93;  
 
OZARK FAIR 87 72 61 S14 29.86R HX 93  
6HR MIN TEMP: 87; 6HR MAX TEMP: 94;  
 
TROY FAIR 85 71 63 SW6 29.86R HX 90  
6HR MIN TEMP: 85; 6HR MAX TEMP: 89;  
 
EUFAULA FAIR 88 73 61 SW3 29.83S HX 95  
6HR MIN TEMP: 87; 6HR MAX TEMP: 94;  
 

 
 
 
CLICK HERE TO GO TO PREVIOUS BULLETINS.

The Nexlab AL Page Main Text Page